K4QXN Weather Reports


Display with metric or nautical units.
time (UTC)temp
F
wind
direction
speed
MPH
gust
MPH
rain 1hr
in
rain 24hr
in
rain mn
in
humidity
%
barometer
mb
20260505032057 64 203 0.0 0.0 0.00 0.00 0.00 51 1013.5
20260505031555 64 203 0.0 0.0 0.00 0.00 0.00 50 1013.5
20260505031054 64 203 0.0 2.0 0.00 0.00 0.00 50 1013.2
20260505030552 64 225 1.0 2.0 0.00 0.00 0.00 50 1013.5
20260505030050 64 270 0.0 1.0 0.00 0.00 0.00 50 1013.5
20260505025548 64 248 0.0 2.0 0.00 0.00 0.00 49 1013.5
20260505025047 65 225 1.0 2.0 0.00 0.00 0.00 49 1013.5
20260505024545 64 248 0.0 1.0 0.00 0.00 0.00 50 1013.5
20260505024043 64 203 1.0 2.0 0.00 0.00 0.00 50 1013.5
20260505023542 64 248 0.0 0.0 0.00 0.00 0.00 51 1013.2
20260505023040 63 248 0.0 0.0 0.00 0.00 0.00 51 1013.5
20260505022538 63 270 0.0 1.0 0.00 0.00 0.00 52 1013.2
20260505022037 63 248 0.0 0.0 0.00 0.00 0.00 52 1013.2
20260505021535 63 225 0.0 0.0 0.00 0.00 0.00 52 1013.2
20260505021033 63 180 0.0 1.0 0.00 0.00 0.00 52 1013.2
20260505020531 62 270 0.0 0.0 0.00 0.00 0.00 55 1013.2
20260505020030 60 248 0.0 0.0 0.00 0.00 0.00 58 1013.5
20260505015528 61 90 0.0 0.0 0.00 0.00 0.00 56 1013.2
20260505015026 62 225 0.0 0.0 0.00 0.00 0.00 54 1012.8
20260505014524 62 225 0.0 0.0 0.00 0.00 0.00 54 1012.8
20260505014023 61 225 0.0 0.0 0.00 0.00 0.00 55 1013.2
20260505013521 61 203 0.0 0.0 0.00 0.00 0.00 54 1012.8
20260505013019 61 225 0.0 0.0 0.00 0.00 0.00 56 1012.8
20260505012518 60 23 0.0 0.0 0.00 0.00 0.00 56 1012.8
20260505012015 61 248 0.0 0.0 0.00 0.00 0.00 55 1012.8
20260505011514 62 248 0.0 0.0 0.00 0.00 0.00 54 1012.8
20260505011012 62 203 0.0 0.0 0.00 0.00 0.00 54 1012.5
20260505010510 63 225 0.0 0.0 0.00 0.00 0.00 53 1012.5
20260505010009 63 248 0.0 0.0 0.00 0.00 0.00 52 1012.5
20260505005507 63 248 0.0 0.0 0.00 0.00 0.00 49 1012.5
20260505005005 64 248 0.0 0.0 0.00 0.00 0.00 47 1012.5
20260505004503 65 203 0.0 0.0 0.00 0.00 0.00 46 1012.1
20260505004001 66 203 0.0 0.0 0.00 0.00 0.00 44 1012.1
20260505003459 67 248 0.0 0.0 0.00 0.00 0.00 42 1012.1
20260505002958 69 248 0.0 0.0 0.00 0.00 0.00 40 1012.1
20260505002456 69 248 0.0 0.0 0.00 0.00 0.00 40 1012.1
20260505001954 69 248 0.0 0.0 0.00 0.00 0.00 39 1012.1
20260505001452 70 248 0.0 0.0 0.00 0.00 0.00 39 1011.8
20260505000950 71 248 0.0 0.0 0.00 0.00 0.00 38 1012.1
20260505000449 71 180 1.0 2.0 0.00 0.00 0.00 37 1012.1
20260504235947 72 270 0.0 0.0 0.00 0.00 0.00 36 1012.1
20260504235445 72 270 0.0 0.0 0.00 0.00 0.00 36 1011.8
20260504234943 73 248 0.0 0.0 0.00 0.00 0.00 35 1011.8
20260504234442 73 248 0.0 1.0 0.00 0.00 0.00 35 1011.8
20260504233940 73 248 0.0 1.0 0.00 0.00 0.00 34 1011.8
20260504233438 74 225 2.0 3.0 0.00 0.00 0.00 34 1011.8
20260504232937 74 248 1.0 2.0 0.00 0.00 0.00 33 1011.8
20260504232435 75 270 0.0 1.0 0.00 0.00 0.00 33 1011.8
20260504231933 75 180 0.0 2.0 0.00 0.00 0.00 32 1011.8
20260504231432 75 203 1.0 3.0 0.00 0.00 0.00 31 1011.5
20260504230930 76 225 1.0 5.0 0.00 0.00 0.00 31 1011.8
20260504230429 76 203 1.0 2.0 0.00 0.00 0.00 30 1011.5
20260504225927 76 338 2.0 5.0 0.00 0.00 0.00 30 1011.8
20260504225425 77 225 2.0 2.0 0.00 0.00 0.00 30 1011.5
20260504224923 77 225 0.0 1.0 0.00 0.00 0.00 30 1011.5
20260504224421 77 270 0.0 2.0 0.00 0.00 0.00 30 1011.8
20260504223919 77 270 1.0 2.0 0.00 0.00 0.00 29 1011.5
20260504223418 78 225 1.0 2.0 0.00 0.00 0.00 29 1011.5
20260504222916 79 203 2.0 3.0 0.00 0.00 0.00 28 1011.5
20260504222414 80 248 0.0 0.0 0.00 0.00 0.00 27 1011.8
20260504221912 80 0 0.0 1.0 0.00 0.00 0.00 28 1011.8
20260504221411 79 180 1.0 2.0 0.00 0.00 0.00 27 1011.8
20260504220909 80 248 1.0 4.0 0.00 0.00 0.00 27 1011.8
20260504220407 80 248 3.0 4.0 0.00 0.00 0.00 27 1011.5
20260504215906 81 180 1.0 3.0 0.00 0.00 0.00 26 1011.5
20260504215404 80 270 1.0 2.0 0.00 0.00 0.00 26 1011.8
20260504214902 80 270 0.0 2.0 0.00 0.00 0.00 27 1011.5
20260504214400 81 203 5.0 7.0 0.00 0.00 0.00 26 1011.5
20260504213858 81 203 3.0 5.0 0.00 0.00 0.00 26 1011.8
20260504213356 80 225 0.0 0.0 0.00 0.00 0.00 27 1011.5
20260504212854 80 203 3.0 5.0 0.00 0.00 0.00 27 1011.8
20260504212353 82 225 0.0 1.0 0.00 0.00 0.00 26 1011.8
20260504211851 82 293 1.0 2.0 0.00 0.00 0.00 26 1011.8
20260504211349 82 203 1.0 2.0 0.00 0.00 0.00 27 1011.8
20260504210847 82 248 5.0 7.0 0.00 0.00 0.00 27 1011.8
20260504210346 82 248 5.0 7.0 0.00 0.00 0.00 27 1011.8
20260504205844 82 248 1.0 2.0 0.00 0.00 0.00 27 1011.8
20260504205342 82 293 1.0 2.0 0.00 0.00 0.00 27 1011.8
20260504204841 82 270 3.0 5.0 0.00 0.00 0.00 28 1011.8
20260504204339 83 270 1.0 3.0 0.00 0.00 0.00 26 1011.8
20260504203837 82 203 1.0 2.0 0.00 0.00 0.00 27 1012.1
20260504203335 83 248 0.0 1.0 0.00 0.00 0.00 25 1012.1
20260504202834 83 45 1.0 2.0 0.00 0.00 0.00 25 1011.8
20260504202330 83 293 0.0 0.0 0.00 0.00 0.00 25 1012.1
20260504201829 82 270 1.0 2.0 0.00 0.00 0.00 25 1012.5
20260504201327 82 293 0.0 0.0 0.00 0.00 0.00 27 1012.5
20260504200825 82 248 1.0 2.0 0.00 0.00 0.00 26 1012.5
20260504200323 82 113 1.0 2.0 0.00 0.00 0.00 26 1012.5
20260504195822 82 270 0.0 0.0 0.00 0.00 0.00 27 1012.5
20260504195320 83 248 3.0 5.0 0.00 0.00 0.00 25 1012.8
20260504194818 82 203 0.0 1.0 0.00 0.00 0.00 28 1012.5
20260504194317 82 248 0.0 1.0 0.00 0.00 0.00 27 1012.5
20260504193815 82 293 1.0 5.0 0.00 0.00 0.00 26 1012.8
20260504193313 83 225 0.0 1.0 0.00 0.00 0.00 29 1012.5
20260504192811 83 203 2.0 4.0 0.00 0.00 0.00 26 1012.8
20260504192309 84 248 0.0 0.0 0.00 0.00 0.00 27 1012.8
20260504191808 81 248 3.0 5.0 0.00 0.00 0.00 25 1012.8
20260504191306 80 225 3.0 5.0 0.00 0.00 0.00 28 1012.8
20260504190805 82 248 0.0 1.0 0.00 0.00 0.00 29 1013.2
20260504190303 79 248 3.0 6.0 0.00 0.00 0.00 31 1013.2
20260504185801 80 293 6.0 8.0 0.00 0.00 0.00 30 1012.8
20260504185259 81 135 0.0 1.0 0.00 0.00 0.00 29 1013.2
20260504184758 81 225 3.0 5.0 0.00 0.00 0.00 30 1013.2
20260504184256 80 68 0.0 1.0 0.00 0.00 0.00 31 1013.2
20260504183755 82 293 4.0 5.0 0.00 0.00 0.00 29 1013.2
20260504183253 81 90 1.0 2.0 0.00 0.00 0.00 30 1013.2
20260504182751 81 90 0.0 0.0 0.00 0.00 0.00 31 1013.2
20260504182249 80 248 0.0 1.0 0.00 0.00 0.00 31 1013.5
20260504181747 79 293 0.0 1.0 0.00 0.00 0.00 34 1013.5
20260504181246 80 248 2.0 2.0 0.00 0.00 0.00 32 1013.5
20260504180744 80 225 1.0 5.0 0.00 0.00 0.00 31 1013.8
20260504180242 80 248 1.0 2.0 0.00 0.00 0.00 32 1013.8
20260504175741 80 180 0.0 2.0 0.00 0.00 0.00 33 1013.5
20260504175239 78 338 0.0 0.0 0.00 0.00 0.00 33 1013.8
20260504174737 81 45 0.0 2.0 0.00 0.00 0.00 32 1013.8
20260504174236 78 68 0.0 0.0 0.00 0.00 0.00 36 1013.5
20260504173734 78 23 4.0 5.0 0.00 0.00 0.00 33 1013.8
20260504173233 79 68 0.0 0.0 0.00 0.00 0.00 34 1013.8
20260504172731 79 158 2.0 4.0 0.00 0.00 0.00 34 1013.8
20260504172229 79 203 2.0 3.0 0.00 0.00 0.00 33 1013.8
20260504171727 81 293 0.0 0.0 0.00 0.00 0.00 30 1013.8
20260504171226 80 113 0.0 0.0 0.00 0.00 0.00 31 1014.2
20260504170724 79 338 0.0 0.0 0.00 0.00 0.00 31 1013.8
20260504170222 79 203 2.0 3.0 0.00 0.00 0.00 29 1014.2
20260504160202 75 23 4.0 5.0 0.00 0.00 0.00 34 1015.5
20260504151145 74 270 0.0 0.0 0.00 0.00 0.00 41 1015.5
20260504150643 72 225 0.0 0.0 0.00 0.00 0.00 44 1015.5
20260504150141 74 90 0.0 0.0 0.00 0.00 0.00 42 1015.5
20260504141124 68 0 1.0 2.0 0.00 0.00 0.00 49 1015.5
20260504140622 68 23 0.0 0.0 0.00 0.00 0.00 51 1015.5
20260504140120 68 45 0.0 0.0 0.00 0.00 0.00 51 1015.2
20260504130601 62 338 0.0 0.0 0.00 0.00 0.00 65 1015.2
20260504110520 41 0 0.0 0.0 0.00 0.00 0.00 96 1015.2
20260504100459 40 225 0.0 0.0 0.00 0.00 0.00 96 1014.9
20260504081923 41 0 0.0 0.0 0.00 0.00 0.00 95 1014.5
20260504081422 41 0 0.0 0.0 0.00 0.00 0.00 95 1014.5
20260504080920 42 0 0.0 0.0 0.00 0.00 0.00 95 1014.5
20260504080418 42 0 0.0 0.0 0.00 0.00 0.00 95 1014.2
20260504070357 41 270 0.0 0.0 0.00 0.00 0.00 94 1014.5
20260504050318 44 23 0.0 0.0 0.00 0.00 0.00 93 1014.5
20260504045816 44 23 0.0 0.0 0.00 0.00 0.00 92 1014.5
20260504045314 45 23 0.0 0.0 0.00 0.00 0.00 92 1014.5
20260504044813 45 23 0.0 0.0 0.00 0.00 0.00 92 1014.5
20260504044311 45 23 0.0 0.0 0.00 0.00 0.00 92 1014.5
20260504043809 44 23 0.0 0.0 0.00 0.00 0.00 92 1014.9
20260504043307 44 23 0.0 0.0 0.00 0.00 0.00 91 1014.9
20260504042805 45 23 0.0 0.0 0.00 0.00 0.00 91 1014.9
20260504042304 45 23 0.0 0.0 0.00 0.00 0.00 90 1014.9
20260504041802 44 23 0.0 0.0 0.00 0.00 0.00 90 1014.9
20260504041301 45 23 0.0 0.0 0.00 0.00 0.00 90 1014.9
20260504040759 45 23 0.0 0.0 0.00 0.00 0.00 89 1015.2
20260504040257 45 23 0.0 0.0 0.00 0.00 0.00 89 1015.2
20260504035756 45 23 0.0 0.0 0.00 0.00 0.00 88 1015.2
20260504035254 45 23 0.0 0.0 0.00 0.00 0.00 88 1015.2
20260504034752 46 23 0.0 0.0 0.00 0.00 0.00 87 1015.2
20260504034251 46 23 0.0 0.0 0.00 0.00 0.00 87 1015.2
20260504033749 46 23 0.0 0.0 0.00 0.00 0.00 87 1015.2
20260504033248 46 23 0.0 0.0 0.00 0.00 0.00 86 1015.2
20260504032746 46 23 0.0 0.0 0.00 0.00 0.00 85 1015.2
20260504032244 47 23 0.0 0.0 0.00 0.00 0.00 85 1015.5